Weather History for Lamoni, IA

Change the Weather History Date:

Tuesday, May 27, 2014

  Actual Average Record
Temperature  
Mean Temperature 74 °F 65 °F  
Max Temperature 82 °F 75 °F 88 °F (1966)
Min Temperature 66 °F 55 °F 40 °F (1992)
Degree Days  
Heating Degree Days 0 3  
Month to date heating degree days 147 156  
Since 1 July heating degree days 6765 6051  
Cooling Degree Days 9 3  
Month to date cooling degree days 69 35  
Year to date cooling degree days 74 42  
Growing Degree Days 24 (Base 50)    
Moisture  
Dew Point 64 °F    
Average Humidity 72    
Maximum Humidity 93    
Minimum Humidity 51    
Precipitation  
Precipitation 0.00 in 0.18 in 2.13 in (1967)
Month to date precipitation 3.71 4.61  
Sea Level Pressure  
Sea Level Pressure 29.94 in    
Wind  
Wind Speed 7 mph (SSW)    
Max Wind Speed 25 mph    
Max Gust Speed 34 mph    
Visibility 9 miles    
Events Thunderstorm    
T = Trace of Precipitation, MM = Missing Value Source: NWS Daily Summary

Daily Weather History Graph

Daily Weather History Graph

Search for Another Location

Airport:

Trip Planner

Search our weather history database for the weather conditions in past years. The results will help you decide how hot, cold, wet, or windy it might be!

Date:

Astronomy

May. 27, 2014 Rise Set
Actual Time 5:49 AM CDT 8:36 PM CDT
Civil Twilight 5:17 AM CDT 9:08 PM CDT
Nautical Twilight 4:36 AM CDT 9:49 PM CDT
Astronomical Twilight 3:50 AM CDT 10:35 PM CDT
Moon 5:12 AM CDT (5/27) 7:39 PM CDT (5/27)
Length of Visible Light 15h 51m
Length of Day
14h 47m
Waning Crescent, 1% of the Moon is Illuminated
May 27
Waning Crescent
May 28
New
Jun 5
First Quarter
Jun 12
Full
Jun 19
Last Quarter

Hourly Weather History & Observations

Time (CDT) Temp. Heat Index Dew Point Humidity Pressure Visibility Wind Dir Wind Speed Gust Speed Precip Events Conditions
12:53 AM 70.0 °F - 66.0 °F 87% 29.95 in 10.0 mi South 8.1 mph - N/A   Clear
1:53 AM 68.0 °F - 64.9 °F 90% 29.94 in 10.0 mi SW 4.6 mph - N/A   Clear
2:53 AM 66.9 °F - 64.9 °F 93% 29.94 in 8.0 mi Calm Calm - N/A   Partly Cloudy
3:53 AM 66.9 °F - 64.9 °F 93% 29.94 in 6.0 mi South 4.6 mph - N/A   Mostly Cloudy
4:53 AM 66.9 °F - 64.9 °F 93% 29.93 in 6.0 mi South 8.1 mph - N/A   Overcast
5:53 AM 66.0 °F - 64.0 °F 93% 29.95 in 5.0 mi SSW 6.9 mph - N/A   Partly Cloudy
6:53 AM 66.9 °F - 64.0 °F 90% 29.96 in 8.0 mi SW 10.4 mph - N/A   Clear
7:53 AM 68.0 °F - 64.0 °F 87% 29.95 in 10.0 mi SSW 9.2 mph - N/A   Clear
8:53 AM 69.1 °F - 63.0 °F 81% 29.95 in 10.0 mi SW 12.7 mph - N/A   Clear
9:53 AM 73.9 °F - 64.9 °F 73% 29.94 in 10.0 mi SW 11.5 mph - N/A   Clear
10:53 AM 77.0 °F - 66.0 °F 69% 29.94 in 10.0 mi WSW 11.5 mph - N/A   Clear
11:53 AM 79.0 °F - 66.0 °F 64% 29.95 in 10.0 mi SW 8.1 mph - N/A   Clear
12:53 PM 81.0 °F 82.5 °F 64.0 °F 56% 29.95 in 10.0 mi West 8.1 mph - N/A   Partly Cloudy
1:53 PM 80.1 °F 81.7 °F 64.0 °F 58% 29.94 in 10.0 mi WSW 10.4 mph - N/A   Scattered Clouds
2:53 PM 82.0 °F 83.0 °F 62.1 °F 51% 29.93 in 10.0 mi West 11.5 mph 17.3 mph N/A   Scattered Clouds
3:28 PM 72.0 °F - 61.0 °F 68% 29.97 in 10.0 mi North 17.3 mph 28.8 mph N/A   Overcast
4:08 PM 73.9 °F - 62.1 °F 66% 29.96 in 10.0 mi North 15.0 mph - N/A Thunderstorm Partly Cloudy
4:23 PM 75.0 °F - 62.1 °F 64% 29.95 in 10.0 mi North 11.5 mph - N/A   Partly Cloudy
4:53 PM 73.0 °F - 62.1 °F 68% 29.93 in 10.0 mi WNW 9.2 mph - N/A   Scattered Clouds
5:53 PM 75.9 °F - 64.0 °F 67% 29.91 in 10.0 mi SSE 3.5 mph - N/A   Clear
6:53 PM 77.0 °F - 61.0 °F 58% 29.90 in 10.0 mi ENE 5.8 mph - N/A   Clear
7:53 PM 73.9 °F - 62.1 °F 66% 29.91 in 10.0 mi SE 3.5 mph - N/A   Clear
8:53 PM 72.0 °F - 62.1 °F 71% 29.91 in 10.0 mi South 3.5 mph - N/A   Clear
9:53 PM 70.0 °F - 62.1 °F 76% 29.92 in 10.0 mi SSW 4.6 mph - N/A   Clear
10:53 PM 68.0 °F - 63.0 °F 84% 29.92 in 10.0 mi South 3.5 mph - N/A   Unknown
11:53 PM 69.1 °F - 62.1 °F 78% 29.93 in 10.0 mi SSW 3.5 mph - N/A   Clear